This is the latest recevied weather packets stored in our database for station/object DL9GRB-13. If no packets are shown the sender has not sent any weather packets the latest 10 day(s).
| Time | Temp. | Humidity | Pressure | Rain* | Wind** | Luminosity | Snow |
|---|---|---|---|---|---|---|---|
| 1777642986 | 21.11° C | 38% | 1026.5 hPa | 0 mm | - | 606 W/m² | - |
| 1777642807 | 21.11° C | 38% | 1026.6 hPa | 0 mm | - | 608 W/m² | - |
| 1777642627 | 21.11° C | 38% | 1026.5 hPa | 0 mm | - | 613 W/m² | - |
| 1777642447 | 21.11° C | 36% | 1026.5 hPa | 0 mm | - | 489 W/m² | - |
| 1777642266 | 21.11° C | 38% | 1026.7 hPa | 0 mm | - | 619 W/m² | - |
| 1777642086 | 21.11° C | 37% | 1026.7 hPa | 0 mm | - | 622 W/m² | - |
| 1777641907 | 20.56° C | 38% | 1026.6 hPa | 0 mm | - | 626 W/m² | - |
| 1777641727 | 20.56° C | 37% | 1026.8 hPa | 0 mm | - | 633 W/m² | - |
| 1777641546 | 20.56° C | 36% | 1026.9 hPa | 0 mm | - | 636 W/m² | - |
| 1777641367 | 20.56° C | 36% | 1026.9 hPa | 0 mm | - | 640 W/m² | - |
| 1777641187 | 20.56° C | 37% | 1026.7 hPa | 0 mm | - | 645 W/m² | - |
| 1777641007 | 21.11° C | 36% | 1026.9 hPa | 0 mm | - | 649 W/m² | - |
| 1777640827 | 20.56° C | 36% | 1026.9 hPa | 0 mm | - | 653 W/m² | - |
| 1777640646 | 20.56° C | 36% | 1026.9 hPa | 0 mm | - | 662 W/m² | - |
| 1777640466 | 20.56° C | 37% | 1027.1 hPa | 0 mm | - | 669 W/m² | - |
| 1777640287 | 20° C | 37% | 1026.9 hPa | 0 mm | - | 676 W/m² | - |
| 1777640107 | 20° C | 38% | 1027 hPa | 0 mm | - | 682 W/m² | - |
| 1777639926 | 20° C | 37% | 1027.1 hPa | 0 mm | - | 689 W/m² | - |
| 1777639747 | 20.56° C | 36% | 1027.3 hPa | 0 mm | - | 694 W/m² | - |
| 1777639566 | 20.56° C | 38% | 1027.2 hPa | 0 mm | - | 697 W/m² | - |
| 1777639386 | 20.56° C | 37% | 1027.3 hPa | 0 mm | - | 700 W/m² | - |
| 1777639206 | 20.56° C | 36% | 1027.1 hPa | 0 mm | - | 703 W/m² | - |
| 1777639026 | 20.56° C | 37% | 1027.2 hPa | 0 mm | - | 702 W/m² | - |
| 1777638847 | 21.11° C | 36% | 1027.1 hPa | 0 mm | - | 702 W/m² | - |
| 1777638667 | 21.11° C | 38% | 1027.4 hPa | 0 mm | - | 708 W/m² | - |
* Rain latest hour (hover to see other rain measurements)
** Current wind speed in m/s (hover to see current wind gust speed)